Date String (YYYY-MM-DD hh:mm:ss) UTC,Instrument flags,absolute air pressure of the measurement (hPa),sample flow rate (lpm),inlet stack bypass flow (lpm),air temperature of the measurement (°C),ambient temperature measured by the external sensor (°C),aerosol sample conditioner tube jacket temperature (°C),OPC LED temperature (°C),internal box temperature (°C),relative humidity of the measurement (%),span deviation,mass concentration of particles derived from Lorenz-Mie calculation of OPC scattering (μg/m³),mass concentration of particles derived from Lorenz-Mie calculation of OPC scattering (μg/m³),mass concentration of particles derived from Lorenz-Mie calculation of OPC scattering (μg/m³)
DateTimeUTC,F1_M11,P_M11,Q1_M11,Q2_M11,T1_M11,T2_M11,T3_M11,T4_M11,T5_M11,U1_M11,ZSPAN_M11,X2_M11,X0_M11,X1_M11
2023-07-14 03:00:00,SystemResetWarning,0829.7,5.02,000.00,028.6,024.7,000.0,036.9,029.9,26.5,0000.0,0004.69,0013.82,0003.85
2023-07-14 03:01:00,SystemResetWarning,0829.7,4.99,000.00,028.6,025.2,000.0,036.9,030.0,26.4,0000.0,0004.71,0014.30,0003.85
2023-07-14 03:02:00,SystemResetWarning,0829.8,5.00,000.00,028.6,025.7,000.0,037.0,030.1,26.3,0000.0,0004.71,0014.47,0003.85
2023-07-14 03:03:00,SystemResetWarning,0829.8,5.01,000.00,028.6,026.2,000.0,037.0,030.2,26.2,0000.0,0004.69,0014.86,0003.86
2023-07-14 03:04:00,SystemResetWarning,0829.8,5.00,000.00,028.6,026.6,000.0,037.0,030.3,26.0,0000.0,0004.65,0014.80,0003.87
2023-07-14 03:05:00,SystemResetWarning,0829.8,4.99,000.00,028.7,027.0,000.0,037.0,030.4,25.9,0000.0,0004.66,0014.66,0003.87
2023-07-14 03:06:00,SystemResetWarning,0829.8,4.99,000.00,028.7,027.3,000.0,037.1,030.5,25.7,0000.0,0004.68,0014.13,0003.89
2023-07-14 03:07:00,SystemResetWarning,0829.9,5.00,000.00,028.8,027.5,000.0,037.1,030.6,26.0,0000.0,0004.70,0013.73,0003.90
2023-07-14 03:08:00,SystemResetWarning,0829.9,5.00,000.00,028.8,027.7,000.0,037.1,030.6,27.2,0000.0,0004.76,0013.53,0003.91
2023-07-14 03:09:00,SystemResetWarning,0829.9,5.00,000.00,028.9,027.6,000.0,037.1,030.7,26.2,0000.0,0004.83,0013.51,0003.94
2023-07-14 03:10:00,SystemResetWarning,0829.9,5.00,000.00,028.9,026.0,000.0,037.0,030.5,25.8,0000.0,0004.83,0013.05,0003.94
2023-07-14 03:11:00,SystemResetWarning,0829.8,5.02,000.00,028.8,025.3,000.0,037.0,030.3,27.0,0000.0,0004.85,0011.67,0003.95
2023-07-14 03:12:00,SystemResetWarning,0829.8,5.00,000.00,028.8,025.5,000.0,037.0,030.1,27.0,0000.0,0004.90,0011.75,0003.97
2023-07-14 03:13:00,SystemResetWarning,0829.9,4.99,000.00,028.7,025.8,000.0,037.0,030.1,26.6,0000.0,0004.95,0011.96,0003.98
2023-07-14 03:14:00,SystemResetWarning,0829.9,5.00,000.00,028.7,026.2,000.0,037.1,030.2,26.2,0000.0,0004.96,0011.45,0003.99
2023-07-14 03:15:00,SystemResetWarning,0829.9,5.01,000.00,028.7,026.6,000.0,037.1,030.4,26.6,0000.0,0004.98,0011.44,0003.99
2023-07-14 03:16:00,SystemResetWarning,0829.9,4.98,000.00,028.8,027.0,000.0,037.1,030.5,26.0,0000.0,0004.97,0011.64,0003.98
2023-07-14 03:17:00,SystemResetWarning,0830.0,5.00,000.00,028.8,027.3,000.0,037.2,030.5,25.7,0000.0,0004.96,0012.23,0003.98
2023-07-14 03:18:00,SystemResetWarning,0830.0,5.01,000.00,028.9,027.5,000.0,037.2,030.6,25.6,0000.0,0004.98,0013.31,0003.99
2023-07-14 03:19:00,SystemResetWarning,0830.0,5.00,000.00,028.9,027.7,000.0,037.2,030.7,26.0,0000.0,0004.96,0012.95,0003.98
2023-07-14 03:20:00,SystemResetWarning,0830.0,4.99,000.00,029.0,027.8,000.0,037.2,030.7,25.7,0000.0,0004.94,0012.81,0003.97
2023-07-14 03:21:00,SystemResetWarning,0829.9,4.99,000.00,029.0,026.4,000.0,037.2,030.6,25.8,0000.0,0004.98,0012.84,0003.96
2023-07-14 03:22:00,SystemResetWarning,0829.9,5.00,000.00,028.9,025.4,000.0,037.1,030.4,25.9,0000.0,0004.97,0013.00,0003.96
2023-07-14 03:23:00,SystemResetWarning,0829.9,5.00,000.00,028.8,025.4,000.0,037.1,030.2,26.0,0000.0,0004.89,0012.68,0003.95
2023-07-14 03:24:00,SystemResetWarning,0829.9,5.02,000.00,028.8,025.7,000.0,037.1,030.2,26.3,0000.0,0004.83,0012.43,0003.94
2023-07-14 03:25:00,SystemResetWarning,0829.9,5.00,000.00,028.8,026.2,000.0,037.2,030.3,26.3,0000.0,0004.82,0012.59,0003.94
2023-07-14 03:26:00,SystemResetWarning,0829.9,5.00,000.00,028.8,026.6,000.0,037.2,030.4,26.0,0000.0,0004.82,0013.32,0003.93
2023-07-14 03:27:00,SystemResetWarning,0829.9,5.00,000.00,028.9,026.9,000.0,037.2,030.5,25.9,0000.0,0004.84,0013.58,0003.94
2023-07-14 03:28:00,SystemResetWarning,0829.9,5.00,000.00,028.9,027.2,000.0,037.2,030.6,25.7,0000.0,0004.86,0013.10,0003.95
2023-07-14 03:29:00,SystemResetWarning,0830.0,5.00,000.00,028.9,027.5,000.0,037.3,030.7,25.6,0000.0,0004.86,0011.75,0003.94
2023-07-14 03:30:00,SystemResetWarning,0830.0,5.00,000.00,029.0,027.7,000.0,037.3,030.7,25.5,0000.0,0004.86,0012.65,0003.94
2023-07-14 03:31:00,SystemResetWarning,0829.9,4.98,000.00,029.0,026.5,000.0,037.2,030.6,25.5,0000.0,0004.82,0013.21,0003.95
2023-07-14 03:32:00,SystemResetWarning,0829.9,5.01,000.00,028.9,025.4,000.0,037.1,030.4,25.5,0000.0,0004.79,0013.27,0003.96
2023-07-14 03:33:00,SystemResetWarning,0829.9,5.01,000.00,028.9,025.3,000.0,037.1,030.2,25.5,0000.0,0004.84,0013.05,0003.95
2023-07-14 03:34:00,SystemResetWarning,0829.9,4.99,000.00,028.8,025.6,000.0,037.1,030.2,25.5,0000.0,0004.91,0013.47,0003.96
2023-07-14 03:35:00,SystemResetWarning,0829.9,5.00,000.00,028.8,026.1,000.0,037.2,030.3,25.5,0000.0,0004.97,0013.70,0003.96
2023-07-14 03:36:00,SystemResetWarning,0830.0,5.01,000.00,028.8,026.5,000.0,037.2,030.3,25.4,0000.0,0004.98,0013.61,0003.95
2023-07-14 03:37:00,SystemResetWarning,0829.9,5.01,000.00,028.8,026.8,000.0,037.2,030.4,25.3,0000.0,0005.00,0013.09,0003.94
2023-07-14 03:38:00,SystemResetWarning,0829.9,5.00,000.00,028.9,027.1,000.0,037.3,030.5,25.2,0000.0,0004.98,0013.24,0003.94
2023-07-14 03:39:00,SystemResetWarning,0829.9,5.00,000.00,028.9,027.4,000.0,037.3,030.6,25.3,0000.0,0004.93,0013.72,0003.93
2023-07-14 03:40:00,SystemResetWarning,0830.0,4.99,000.00,029.0,027.6,000.0,037.3,030.7,25.8,0000.0,0004.86,0014.40,0003.92
2023-07-14 03:41:00,SystemResetWarning,0830.1,4.99,000.00,029.0,027.8,000.0,037.3,030.7,26.0,0000.0,0004.82,0013.77,0003.91
2023-07-14 03:42:00,SystemResetWarning,0830.0,5.00,000.00,029.0,027.0,000.0,037.3,030.7,25.6,0000.0,0004.79,0013.23,0003.90
2023-07-14 03:43:00,SystemResetWarning,0829.9,5.00,000.00,029.0,025.5,000.0,037.2,030.4,25.3,0000.0,0004.75,0013.54,0003.88
2023-07-14 03:44:00,SystemResetWarning,0829.9,5.00,000.00,028.9,025.3,000.0,037.1,030.3,25.3,0000.0,0004.74,0013.97,0003.87
2023-07-14 03:45:00,SystemResetWarning,0830.0,5.01,000.00,028.8,025.6,000.0,037.2,030.2,25.5,0000.0,0004.70,0014.12,0003.86
2023-07-14 03:46:00,SystemResetWarning,0830.0,5.00,000.00,028.8,026.0,000.0,037.2,030.3,25.4,0000.0,0004.63,0014.58,0003.85
2023-07-14 03:47:00,SystemResetWarning,0830.0,5.00,000.00,028.8,026.4,000.0,037.2,030.4,25.5,0000.0,0004.65,0015.07,0003.85
2023-07-14 03:48:00,SystemResetWarning,0830.0,5.00,000.00,028.9,026.8,000.0,037.3,030.4,25.7,0000.0,0004.64,0015.45,0003.84
2023-07-14 03:49:00,SystemResetWarning,0830.0,5.00,000.00,028.9,027.1,000.0,037.3,030.5,25.6,0000.0,0004.66,0015.12,0003.83
2023-07-14 03:50:00,SystemResetWarning,0830.0,5.00,000.00,028.9,027.4,000.0,037.3,030.6,25.5,0000.0,0004.69,0014.46,0003.83
2023-07-14 03:51:00,SystemResetWarning,0830.0,5.00,000.00,029.0,027.6,000.0,037.3,030.7,25.0,0000.0,0004.76,0014.12,0003.83
2023-07-14 03:52:00,SystemResetWarning,0830.0,5.00,000.00,029.0,027.8,000.0,037.4,030.8,24.8,0000.0,0004.82,0015.34,0003.83
2023-07-14 03:53:00,SystemResetWarning,0830.0,4.99,000.00,029.1,027.3,000.0,037.3,030.7,24.7,0000.0,0004.87,0015.64,0003.83
2023-07-14 03:54:00,SystemResetWarning,0830.1,5.00,000.00,029.0,025.7,000.0,037.2,030.4,24.6,0000.0,0004.88,0015.74,0003.83
2023-07-14 03:55:00,SystemResetWarning,0830.0,5.01,000.00,028.9,025.3,000.0,037.1,030.3,24.5,0000.0,0004.87,0015.37,0003.83
2023-07-14 03:56:00,SystemResetWarning,0830.0,5.00,000.00,028.9,025.5,000.0,037.2,030.2,24.5,0000.0,0004.86,0014.61,0003.83
2023-07-14 03:57:00,SystemResetWarning,0830.0,4.99,000.00,028.8,025.9,000.0,037.2,030.2,24.4,0000.0,0004.88,0013.83,0003.82
2023-07-14 03:58:00,SystemResetWarning,0830.0,5.00,000.00,028.8,026.3,000.0,037.3,030.3,24.4,0000.0,0004.84,0013.42,0003.83
2023-07-14 03:59:00,SystemResetWarning,0830.0,5.01,000.00,028.9,026.7,000.0,037.3,030.4,24.3,0000.0,0004.84,0014.26,0003.83
